NSK973 KFLL-KMSY

Flight info

Callsign NSK973
Flight time N/A
Altitude 36000
Route BNICE2 DOLIE Y280 REDFN Q105 HRV
Aircraft A321/M-SDE3FGHIRWY/LB1

Departure

Time 2026-05-04 14:40
Airport Fort Lauderdale Hollywood International Airport (KFLL)

Arrival

Time N/A
Airport Louis Armstrong New Orleans International Airport (KMSY)
Time Latitude Longitude Altitude Speed Heading
2026-05-04 14:03 26.07155 -80.14690 12 ft 0 kts 178°
2026-05-04 14:26 26.07167 -80.14690 12 ft 2 kts 178°
2026-05-04 14:26 26.07183 -80.14690 12 ft 2 kts 191°
2026-05-04 14:26 26.07196 -80.14682 12 ft 2 kts 229°
2026-05-04 14:27 26.07203 -80.14668 12 ft 2 kts 264°
2026-05-04 14:27 26.07203 -80.14658 12 ft 0 kts 283°
2026-05-04 14:27 26.07201 -80.14652 12 ft 0 kts 281°
2026-05-04 14:29 26.07202 -80.14654 12 ft 0 kts 281°
2026-05-04 14:29 26.07208 -80.14692 11 ft 5 kts 281°
2026-05-04 14:30 26.07210 -80.14747 12 ft 8 kts 256°
2026-05-04 14:30 26.07167 -80.14809 11 ft 11 kts 227°
2026-05-04 14:30 26.07169 -80.14973 12 ft 11 kts 267°
2026-05-04 14:31 26.07155 -80.15055 12 ft 11 kts 292°
2026-05-04 14:31 26.07211 -80.15202 12 ft 10 kts 270°
2026-05-04 14:32 26.07280 -80.15301 12 ft 9 kts
2026-05-04 14:32 26.07347 -80.15301 12 ft 9 kts
2026-05-04 14:32 26.07412 -80.15300 12 ft 9 kts
2026-05-04 14:32 26.07474 -80.15300 11 ft 8 kts
2026-05-04 14:33 26.07534 -80.15302 12 ft 8 kts 341°
2026-05-04 14:33 26.07564 -80.15352 12 ft 8 kts 277°
2026-05-04 14:33 26.07565 -80.15414 11 ft 7 kts 270°
2026-05-04 14:33 26.07566 -80.15475 11 ft 7 kts 271°
2026-05-04 14:34 26.07566 -80.15534 12 ft 7 kts 269°
2026-05-04 14:34 26.07566 -80.15592 12 ft 7 kts 270°
2026-05-04 14:34 26.07566 -80.15650 12 ft 7 kts 270°
2026-05-04 14:34 26.07566 -80.15716 12 ft 8 kts 270°
2026-05-04 14:35 26.07567 -80.15788 12 ft 10 kts 271°
2026-05-04 14:35 26.07567 -80.15870 12 ft 11 kts 270°
2026-05-04 14:35 26.07568 -80.15959 12 ft 11 kts 270°
2026-05-04 14:35 26.07569 -80.16054 12 ft 12 kts 270°
2026-05-04 14:36 26.07569 -80.16155 12 ft 13 kts 270°
2026-05-04 14:36 26.07569 -80.16261 12 ft 13 kts 270°
2026-05-04 14:36 26.07570 -80.16373 12 ft 14 kts 270°
2026-05-04 14:36 26.07570 -80.16486 12 ft 14 kts 270°
2026-05-04 14:37 26.07571 -80.16597 12 ft 10 kts 270°
2026-05-04 14:37 26.07593 -80.16640 12 ft 5 kts 341°
2026-05-04 14:37 26.07601 -80.16641 12 ft 1 kts 355°
2026-05-04 14:37 26.07617 -80.16641 12 ft 3 kts
2026-05-04 14:38 26.07652 -80.16641 12 ft 6 kts
2026-05-04 14:38 26.07690 -80.16622 12 ft 7 kts 70°
2026-05-04 14:38 26.07694 -80.16593 12 ft 0 kts 91°
2026-05-04 14:38 26.07694 -80.16589 12 ft 0 kts 91°
2026-05-04 14:39 26.07694 -80.16586 12 ft 0 kts 91°
2026-05-04 14:39 26.07694 -80.16563 12 ft 14 kts 90°
2026-05-04 14:40 26.07687 -80.15324 12 ft 144 kts 90°
2026-05-04 14:40 26.07669 -80.14043 226 ft 174 kts 89°
2026-05-04 14:40 26.07643 -80.12735 998 ft 165 kts 88°
2026-05-04 14:40 26.07624 -80.11532 1742 ft 155 kts 83°
2026-05-04 14:41 26.07866 -80.10335 2141 ft 164 kts 70°
2026-05-04 14:41 26.08264 -80.09074 2480 ft 180 kts 69°
2026-05-04 14:41 26.09823 -80.06793 3200 ft 207 kts 24°
2026-05-04 14:42 26.12838 -80.05621 3869 ft 248 kts 19°
2026-05-04 14:42 26.14519 -80.05010 4339 ft 263 kts 11°
2026-05-04 14:42 26.16359 -80.04981 5021 ft 268 kts 348°
2026-05-04 14:43 26.18146 -80.05571 5783 ft 269 kts 340°
2026-05-04 14:43 26.19946 -80.06286 6509 ft 273 kts 338°
2026-05-04 14:43 26.21671 -80.07153 7197 ft 275 kts 322°
2026-05-04 14:43 26.22934 -80.08727 7928 ft 273 kts 296°
2026-05-04 14:44 26.23666 -80.10655 8688 ft 273 kts 290°
2026-05-04 14:44 26.24342 -80.12637 9384 ft 276 kts 289°
2026-05-04 14:44 26.25005 -80.14641 10115 ft 276 kts 287°
2026-05-04 14:44 26.25530 -80.16702 10645 ft 283 kts 282°
2026-05-04 14:45 26.25905 -80.18922 10956 ft 298 kts 278°
2026-05-04 14:45 26.26233 -80.21233 11504 ft 304 kts 278°